timestamp,surface_pressure_avg,surface_temp_avg,battery_voltage,lat,long
2023-05-30 00:09:00+00:00,239.7781,6.2,13.21,47.84626,-54.09684
2023-05-30 00:19:00+00:00,239.8581,6.16,12.97,47.84626,-54.09684
2023-05-30 00:29:00+00:00,247.2164,6.1,12.97,47.84626,-54.09684
2023-05-30 00:39:00+00:00,243.6464,5.9,12.97,47.84626,-54.09684
2023-05-30 00:49:00+00:00,235.4698,5.95,12.97,47.84626,-54.09684
2023-05-30 00:59:00+00:00,239.1681,5.8,12.97,47.84626,-54.09684
2023-05-30 01:09:00+00:00,245.2247,5.89,12.97,47.84626,-54.09684
2023-05-30 01:19:00+00:00,239.8831,5.96,12.81,47.84626,-54.09684
2023-05-30 01:29:00+00:00,232.1414,5.9,12.81,47.84626,-54.09684
2023-05-30 01:39:00+00:00,236.6115,5.7,12.81,47.84626,-54.09684
2023-05-30 01:49:00+00:00,240.0364,5.69,12.81,47.84626,-54.09684
2023-05-30 01:59:00+00:00,232.8548,5.61,12.81,47.84626,-54.09684
2023-05-30 02:09:00+00:00,230.1148,5.6,12.81,47.84626,-54.09684
2023-05-30 02:19:00+00:00,234.0564,5.6,12.73,47.84626,-54.09684
2023-05-30 02:29:00+00:00,231.7898,5.59,12.73,47.84626,-54.09684
2023-05-30 02:39:00+00:00,229.2347,5.5,12.73,47.84626,-54.09684
2023-05-30 02:49:00+00:00,231.7347,5.5,12.73,47.84626,-54.09684
2023-05-30 02:59:00+00:00,231.9164,5.45,12.73,47.84626,-54.09684
2023-05-30 03:09:00+00:00,229.8548,5.4,12.73,47.84626,-54.09684
2023-05-30 03:19:00+00:00,233.0531,5.4,12.65,47.84626,-54.09684
2023-05-30 03:29:00+00:00,236.2614,5.4,12.65,47.84626,-54.09684
2023-05-30 03:39:00+00:00,234.3164,5.4,12.65,47.84626,-54.09684
2023-05-30 03:49:00+00:00,235.6714,5.4,12.65,47.84626,-54.09684
2023-05-30 03:59:00+00:00,244.9197,5.4,12.65,47.84626,-54.09684
2023-05-30 04:09:00+00:00,251.4098,5.3,12.65,47.84626,-54.09684
2023-05-30 04:19:00+00:00,250.1364,5.3,12.65,47.84626,-54.09684
2023-05-30 04:29:00+00:00,249.6114,5.29,12.65,47.84626,-54.09684
2023-05-30 04:39:00+00:00,259.7764,5.23,12.65,47.84626,-54.09684
2023-05-30 04:49:00+00:00,268.5398,5.2,12.65,47.84626,-54.09684
2023-05-30 04:59:00+00:00,267.278,5.2,12.65,47.84626,-54.09684
2023-05-30 05:09:00+00:00,268.8198,5.18,12.65,47.84626,-54.09684
2023-05-30 05:19:00+00:00,278.7981,5.1,12.65,47.84626,-54.09684
2023-05-30 05:29:00+00:00,285.2296,5.08,12.65,47.84626,-54.09684
2023-05-30 05:39:00+00:00,287.2063,5.08,12.65,47.84626,-54.09684
2023-05-30 05:49:00+00:00,291.6964,5.0,12.65,47.84626,-54.09684
2023-05-30 05:59:00+00:00,298.1063,5.0,12.65,47.84626,-54.09684
2023-05-30 06:09:00+00:00,298.3748,4.99,12.65,47.84626,-54.09684
2023-05-30 06:19:00+00:00,301.828,5.0,12.57,47.84626,-54.09684
2023-05-30 06:29:00+00:00,303.7697,5.0,12.57,47.84626,-54.09684
2023-05-30 06:39:00+00:00,304.7897,4.9,12.57,47.84626,-54.09684
2023-05-30 06:49:00+00:00,305.008,4.9,12.57,47.84626,-54.09684
2023-05-30 06:59:00+00:00,307.0397,4.9,12.57,47.84626,-54.09684
2023-05-30 07:09:00+00:00,306.8679,4.93,12.57,47.84626,-54.09684
2023-05-30 07:19:00+00:00,309.523,4.9,12.57,47.84626,-54.09684
2023-05-30 07:29:00+00:00,314.7363,4.7,12.57,47.84626,-54.09684
2023-05-30 07:39:00+00:00,315.6396,4.6,12.57,47.84626,-54.09684
2023-05-30 07:49:00+00:00,313.6714,4.64,12.57,47.84626,-54.09684
2023-05-30 07:59:00+00:00,311.8963,4.7,12.57,47.84626,-54.09684
2023-05-30 08:09:00+00:00,316.7914,4.7,12.57,47.84626,-54.09684
2023-05-30 08:19:00+00:00,320.0663,4.6,12.57,47.84626,-54.09684
2023-05-30 08:29:00+00:00,314.8781,4.64,12.57,47.84626,-54.09684
2023-05-30 08:39:00+00:00,310.3447,4.7,12.57,47.84626,-54.09684
2023-05-30 08:49:00+00:00,312.2396,4.7,12.57,47.84626,-54.09684
2023-05-30 08:59:00+00:00,309.8263,4.7,12.57,47.84626,-54.09684
2023-05-30 09:09:00+00:00,301.3964,4.7,12.57,47.84626,-54.09684
2023-05-30 09:19:00+00:00,300.2964,4.74,12.65,47.84626,-54.09684
2023-05-30 09:29:00+00:00,301.4847,4.75,12.65,47.84626,-54.09684
2023-05-30 09:39:00+00:00,297.9347,4.7,12.65,47.84626,-54.09684
2023-05-30 09:49:00+00:00,291.5347,4.77,12.65,47.84626,-54.09684
2023-05-30 09:59:00+00:00,292.0564,4.8,12.65,47.84626,-54.09684
2023-05-30 10:09:00+00:00,291.223,4.8,12.65,47.84626,-54.09684
2023-05-30 10:19:00+00:00,283.2764,4.8,13.37,47.84626,-54.09684
2023-05-30 10:29:00+00:00,275.7314,4.9,13.37,47.84626,-54.09684
2023-05-30 10:39:00+00:00,272.4614,4.9,13.37,47.84626,-54.09684
2023-05-30 10:49:00+00:00,269.808,4.9,13.37,47.84626,-54.09684
2023-05-30 10:59:00+00:00,263.0698,4.9,13.37,47.84626,-54.09684
2023-05-30 11:09:00+00:00,255.2364,4.9,13.37,47.84626,-54.09684
2023-05-30 11:19:00+00:00,252.1614,4.9,13.84,47.84626,-54.09684
2023-05-30 11:29:00+00:00,249.7415,4.79,13.84,47.84626,-54.09684
2023-05-30 11:39:00+00:00,246.9547,4.7,13.84,47.84626,-54.09684
2023-05-30 11:49:00+00:00,243.0364,4.7,13.84,47.84626,-54.09684
2023-05-30 11:59:00+00:00,239.0314,4.7,13.84,47.84626,-54.09684
2023-05-30 12:09:00+00:00,234.8615,4.7,13.84,47.84626,-54.09684
2023-05-30 12:19:00+00:00,228.9081,4.7,13.84,47.84626,-54.09684
2023-05-30 12:29:00+00:00,225.2964,4.7,13.84,47.84626,-54.09684
2023-05-30 12:39:00+00:00,221.1064,4.7,13.84,47.84626,-54.09684
2023-05-30 12:49:00+00:00,216.4681,4.69,13.84,47.84626,-54.09684
2023-05-30 12:59:00+00:00,215.3448,4.67,13.84,47.84626,-54.09684
2023-05-30 13:09:00+00:00,218.5665,4.6,13.84,47.84626,-54.09684
2023-05-30 13:19:01+00:00,217.4515,4.6,14.32,47.84626,-54.09684
2023-05-30 13:29:01+00:00,213.2914,4.6,14.32,47.84626,-54.09684
2023-05-30 13:39:01+00:00,217.9331,4.6,14.32,47.84626,-54.09684
2023-05-30 13:49:01+00:00,221.3465,4.59,14.32,47.84626,-54.09684
2023-05-30 13:59:01+00:00,214.1397,4.6,14.32,47.84626,-54.09684
2023-05-30 14:09:01+00:00,212.5148,4.6,14.32,47.84626,-54.09684
2023-05-30 14:19:00+00:00,218.5431,4.6,14.32,47.84626,-54.09684
2023-05-30 14:29:00+00:00,213.2848,4.6,14.32,47.84626,-54.09684
2023-05-30 14:39:00+00:00,205.0831,4.64,14.32,47.84626,-54.09684
2023-05-30 14:49:00+00:00,209.7814,4.7,14.32,47.84626,-54.09684
2023-05-30 14:59:00+00:00,218.5931,4.73,14.32,47.84626,-54.09684
2023-05-30 15:09:00+00:00,215.8398,4.8,14.32,47.84626,-54.09684
2023-05-30 15:19:00+00:00,215.2698,4.86,14.24,47.84626,-54.09684
2023-05-30 15:29:00+00:00,221.0247,4.8,14.24,47.84626,-54.09684
2023-05-30 15:39:00+00:00,224.1914,4.75,14.24,47.84626,-54.09684
2023-05-30 15:49:00+00:00,224.7448,4.7,14.24,47.84626,-54.09684
2023-05-30 15:59:00+00:00,226.6731,4.78,14.24,47.84626,-54.09684
2023-05-30 16:09:00+00:00,228.5947,4.9,14.24,47.84626,-54.09684
2023-05-30 16:19:00+00:00,230.4597,4.8,14.16,47.84626,-54.09684
2023-05-30 16:29:00+00:00,236.0115,4.6,14.16,47.84626,-54.09684
2023-05-30 16:39:00+00:00,240.7464,4.6,14.16,47.84626,-54.09684
2023-05-30 16:49:00+00:00,243.3531,4.54,14.16,47.84626,-54.09684
2023-05-30 16:59:00+00:00,245.5064,4.58,14.16,47.84626,-54.09684
2023-05-30 17:09:00+00:00,252.0665,4.5,14.16,47.84626,-54.09684
2023-05-30 17:19:00+00:00,258.8564,4.5,14.0,47.84626,-54.09684
2023-05-30 17:29:00+00:00,264.8647,4.5,14.0,47.84626,-54.09684
2023-05-30 17:39:00+00:00,269.8914,4.5,14.0,47.84626,-54.09684
2023-05-30 17:49:00+00:00,276.7914,4.5,14.0,47.84626,-54.09684
2023-05-30 17:59:00+00:00,280.5231,4.5,14.0,47.84626,-54.09684
2023-05-30 18:09:00+00:00,283.9014,4.5,14.0,47.84626,-54.09684
2023-05-30 18:19:00+00:00,289.2297,4.5,13.76,47.84626,-54.09684
2023-05-30 18:29:00+00:00,295.188,4.5,13.76,47.84626,-54.09684
2023-05-30 18:39:00+00:00,292.7513,4.5,13.76,47.84626,-54.09684
2023-05-30 18:49:00+00:00,294.7147,4.61,13.76,47.84626,-54.09684
2023-05-30 18:59:00+00:00,303.878,4.68,13.76,47.84626,-54.09684
2023-05-30 19:09:00+00:00,308.0997,4.69,13.76,47.84626,-54.09684
2023-05-30 19:19:00+00:00,304.483,4.88,13.68,47.84626,-54.09684
2023-05-30 19:29:00+00:00,306.0863,4.9,13.68,47.84626,-54.09684
2023-05-30 19:39:00+00:00,310.938,4.76,13.68,47.84626,-54.09684
2023-05-30 19:49:00+00:00,312.9463,4.5,13.68,47.84626,-54.09684
2023-05-30 19:59:00+00:00,313.1296,4.5,13.68,47.84626,-54.09684
2023-05-30 20:09:00+00:00,314.1346,4.5,13.68,47.84626,-54.09684
2023-05-30 20:19:00+00:00,310.4047,4.57,13.53,47.84626,-54.09684
2023-05-30 20:29:00+00:00,309.9048,4.7,13.53,47.84626,-54.09684
2023-05-30 20:39:00+00:00,315.548,4.78,13.53,47.84626,-54.09684
2023-05-30 20:49:00+00:00,318.1281,4.8,13.53,47.84626,-54.09684
2023-05-30 20:59:00+00:00,313.64799999999997,4.83,13.53,47.84626,-54.09684
2023-05-30 21:09:00+00:00,313.7463,4.9,13.53,47.84626,-54.09684
2023-05-30 21:19:00+00:00,314.383,4.9,13.44,47.84626,-54.09684
2023-05-30 21:29:00+00:00,313.0647,4.9,13.44,47.84626,-54.09684
2023-05-30 21:39:00+00:00,310.0347,4.93,13.44,47.84626,-54.09684
2023-05-30 21:49:00+00:00,307.3613,4.93,13.44,47.84626,-54.09684
2023-05-30 21:59:00+00:00,298.373,4.92,13.44,47.84626,-54.09684
2023-05-30 22:09:00+00:00,294.1464,4.9,13.44,47.84626,-54.09684
2023-05-30 22:19:01+00:00,296.3364,4.9,13.29,47.84626,-54.09684
2023-05-30 22:29:01+00:00,291.9347,4.9,13.29,47.84626,-54.09684
2023-05-30 22:39:01+00:00,279.7131,4.94,13.29,47.84626,-54.09684
2023-05-30 22:49:01+00:00,279.1147,4.9,13.29,47.84626,-54.09684
2023-05-30 22:59:01+00:00,280.9498,4.92,13.29,47.84626,-54.09684
2023-05-30 23:09:01+00:00,271.5448,5.0,13.29,47.84626,-54.09684
2023-05-30 23:19:00+00:00,261.9647,5.0,13.05,47.84626,-54.09684
2023-05-30 23:29:00+00:00,262.1264,5.04,13.05,47.84626,-54.09684
2023-05-30 23:39:00+00:00,256.3898,5.06,13.05,47.84626,-54.09684
2023-05-30 23:49:00+00:00,243.9314,5.08,13.05,47.84626,-54.09684
2023-05-30 23:59:00+00:00,239.6231,5.09,13.05,47.84626,-54.09684
